[[{"header":{"parameterUnit":"m.s-1","parameterCategory":1,"la1":30.2991,"la2":30.254,"lo1":-89.0895,"lo2":-89.0444,"dy":0.0017,"dx":0.0017,"nx":28,"ny":28,"refTime":"2025-05-29T21:00:00:Z","depth":0,"parameterNumber":2,"parameterNumberName":"U-component_of_WINDS"},"data":[0,0,0,0,0,0,0,0,0,0,0,0,0,0,0,0,0,0,0,0,0,0,0,0,0,0,0,0,0,0,0,0,0,0,0,0,0,0,0,0,0,0,0,0,0,0,0,0,0,0,0,0,0,0,0,0,0,0,-0.5884,-0.5884,0,-0.588,-0.588,-0.588,-0.5928,-0.5929,-0.5931,-0.5932,-0.5922,-0.592,-0.5919,0,0,0,0,0,0,0,0,0,0,0,0,0,-0.593,-0.5929,-0.5884,-0.5884,-0.5884,-0.588,-0.588,-0.588,-0.5928,-0.5929,-0.5931,-0.5933,-0.5922,-0.5921,-0.5919,0,0,0,0,0,0,0,0,0,0,0,0,0,-0.5916,-0.5929,-0.5884,-0.5908,-0.591,-0.588,-0.588,-0.588,-0.5927,-0.593,-0.5932,-0.5933,-0.5923,-0.5921,-0.5919,-0.5864,0,0,-0.5912,-0.5911,0,0,0,0,0,0,0,0,-0.5917,-0.5915,-0.5905,-0.5906,-0.5909,-0.5907,-0.5892,-0.5874,-0.5927,-0.5921,-0.5932,-0.5934,-0.5915,-0.5913,-0.5908,-0.5864,-0.5863,-0.5911,-0.591,-0.5909,-0.5908,0,0,0,0,0,0,0,-0.5918,-0.5915,-0.5882,-0.5904,-0.5907,-0.5917,-0.5917,-0.5889,-0.5906,-0.5921,-0.5925,-0.5924,-0.5916,-0.591,-0.5908,-0.5863,-0.5911,-0.5909,-0.5908,-0.5907,-0.5774,-0.5772,0,0,0,0,0,0,-0.5916,-0.5915,-0.5883,-0.5882,-0.5918,-0.5915,-0.5915,-0.5905,-0.5907,-0.5909,-0.5922,-0.5926,-0.5913,-0.5911,-0.5908,-0.5844,-0.5909,-0.5907,-0.5906,-0.5776,-0.5773,-0.5771,0,0,0,0,0,0,-0.5917,-0.5913,-0.5883,-0.59,-0.5897,-0.5912,-0.59,-0.5904,-0.5898,-0.5908,-0.591,-0.5913,-0.5914,-0.5911,-0.5875,-0.5845,-0.5906,-0.5904,-0.5778,-0.5775,-0.5772,-0.5717,0,0,0,0,0,0,-0.5918,-0.5913,-0.5894,-0.5899,-0.5896,-0.5851,-0.5899,-0.5902,-0.5894,-0.59,-0.59,-0.5901,-0.5916,-0.5878,-0.5873,-0.5843,-0.5902,-0.5781,-0.5777,-0.5773,-0.5721,-0.5712,-0.5704,0,0,0,0,0,-0.592,-0.5877,-0.5892,-0.5888,-0.5872,-0.5849,-0.5847,-0.5866,-0.5892,-0.5872,-0.5878,-0.5901,-0.5849,-0.5874,-0.5868,-0.5837,-0.5783,-0.5778,-0.5773,-0.5725,-0.5714,-0.5704,0,0,0,0,0,0,-0.5865,-0.5878,-0.5895,-0.5853,-0.585,-0.5858,-0.5833,-0.5854,-0.5842,-0.5847,-0.5869,-0.5869,-0.5829,-0.5829,-0.5857,-0.5784,-0.582,-0.5814,-0.5786,-0.5775,-0.5766,-0.5767,-0.59,0,0,0,0,0,-0.5849,-0.5831,-0.5842,-0.5804,-0.5802,-0.5818,-0.5808,-0.5823,-0.582,-0.5819,-0.5822,-0.5817,-0.5799,-0.5787,-0.5771,-0.5722,-0.5722,-0.5697,-0.5689,-0.5681,-0.5676,-0.5649,-0.5638,-0.5755,-0.5755,-0.5755,0,0,-0.5813,-0.5818,-0.5805,-0.5793,-0.5793,-0.5772,-0.5816,-0.5793,-0.5777,-0.5815,-0.5781,-0.5784,-0.5779,-0.5736,-0.5717,-0.5735,-0.5644,-0.5675,-0.5669,-0.5667,-0.5643,-0.5632,-0.5622,-0.5751,-0.5752,-0.5753,0,0,-0.5739,-0.5741,-0.571,-0.5709,-0.5708,-0.5719,-0.5711,-0.5716,-0.572,-0.5687,-0.5715,-0.5696,-0.5665,-0.5661,-0.5655,-0.558,-0.5601,-0.5574,-0.5528,-0.5502,-0.5493,-0.5485,-0.5458,-0.5448,-0.5568,-0.5568,-0.5568,0,-0.5695,-0.5668,-0.5691,-0.5666,-0.566,-0.5694,-0.5662,-0.5659,-0.5652,-0.5646,-0.5667,-0.563,-0.5629,-0.5586,-0.5567,-0.5561,-0.5552,-0.5574,-0.5493,-0.5485,-0.5478,-0.5452,-0.5442,-0.5564,-0.5565,-0.5565,-0.5565,0,-0.5613,-0.5594,-0.5568,-0.5563,-0.5554,-0.5525,-0.5542,-0.553,-0.5546,-0.5554,-0.552,-0.552,-0.5506,-0.5496,-0.5511,-0.5454,-0.5466,-0.5489,-0.5526,-0.5463,-0.5439,-0.5429,-0.556,-0.5561,-0.5562,-0.5563,0,0,-0.5504,-0.5513,-0.5503,-0.5502,-0.5504,-0.5488,-0.546,-0.5448,-0.5436,-0.543,-0.5407,-0.5381,-0.5403,-0.5396,-0.541,-0.5387,-0.5327,-0.5413,-0.5414,-0.5397,-0.5265,-0.5247,-0.5235,-0.5341,-0.534,-0.5338,-0.5265,0,-0.5432,-0.5388,-0.5408,-0.5361,-0.5342,-0.5375,-0.5351,-0.5349,-0.5356,-0.534,-0.5347,-0.5328,-0.5358,-0.5354,-0.5333,-0.5339,-0.5301,-0.5344,-0.5319,-0.5317,-0.5319,-0.5223,-0.5204,-0.5135,-0.5256,-0.5254,-0.5253,0,-0.5342,-0.5335,-0.5286,-0.5292,-0.5285,-0.5263,-0.5253,-0.5238,-0.5236,-0.5242,-0.5235,-0.5254,-0.5226,-0.5263,-0.5224,-0.5253,-0.5244,-0.5245,-0.5243,-0.524,-0.5281,-0.5218,-0.5113,-0.5103,-0.5239,-0.524,-0.5241,0,-0.5267,-0.5244,-0.5213,-0.521,-0.5216,-0.52,-0.5201,-0.5201,-0.5192,-0.5183,-0.5178,-0.5164,-0.5157,-0.5145,-0.516,-0.5186,-0.5119,-0.5157,-0.5122,-0.5122,-0.5106,-0.5107,-0.4999,-0.5101,-0.5101,-0.5101,-0.5101,0,-0.5184,-0.5153,-0.5179,-0.516,-0.5125,-0.5148,-0.5113,-0.5118,-0.5118,-0.5098,-0.5125,-0.5106,-0.5127,-0.511,-0.5121,-0.5087,-0.5083,-0.5086,-0.509,-0.5084,-0.5083,-0.5077,-0.5082,-0.5098,-0.5099,-0.5099,-0.51,0,-0.5094,-0.5111,-0.5078,-0.5087,-0.5089,-0.5063,-0.507,-0.5051,-0.5061,-0.5036,-0.5031,-0.5045,-0.5025,-0.5039,-0.5019,-0.5027,-0.4982,-0.4992,-0.4983,-0.4986,-0.4951,-0.4953,-0.4834,-0.4819,-0.4931,-0.493,-0.4929,0,-0.504,-0.5018,-0.5025,-0.5015,-0.5015,-0.4998,-0.499,-0.5011,-0.5001,-0.4997,-0.4979,-0.4962,-0.495,-0.4918,-0.4924,-0.4909,-0.4919,-0.4878,-0.4917,-0.4912,-0.4918,-0.4919,-0.4917,-0.487,-0.4869,-0.4868,-0.4867,0,-0.4943,-0.4952,-0.494,-0.4931,-0.4921,-0.4914,-0.4909,-0.4899,-0.4921,-0.4908,-0.489,-0.4881,-0.4862,-0.4844,-0.4832,-0.4832,-0.4852,-0.4855,-0.4846,-0.484,-0.4836,-0.4837,-0.4962,-0.4857,-0.4858,-0.4859,-0.486,-0.486,-0.4869,-0.485,-0.4853,-0.4838,-0.4837,-0.4833,-0.4816,-0.4824,-0.4809,-0.4797,-0.481,-0.4787,-0.4785,-0.4771,-0.4768,-0.475,-0.4767,-0.4754,-0.475,-0.4747,-0.4742,-0.4839,-0.4748,-0.4748,-0.4748,-0.4749,-0.4749,0,-0.4772,-0.4776,-0.4763,-0.4756,-0.4745,-0.4768,-0.4763,-0.4752,-0.4732,-0.473,-0.4718,-0.4696,-0.468,-0.4686,-0.4671,-0.4655,-0.4664,-0.4651,-0.4652,-0.4651,-0.4728,-0.4737,-0.4644,-0.4644,-0.4644,-0.4644,-0.4644,-0.4644,-0.4721,-0.4691,-0.47,-0.467,-0.4673,-0.4653,-0.4649,-0.4644,-0.4642,-0.4617,-0.4605,-0.461,-0.461,-0.4595,-0.4581,-0.4583,-0.4576,-0.4559,-0.4564,-0.4635,-0.4646,-0.4656,-0.4664,-0.4557,-0.4557,-0.4489,-0.4488,-0.4487]},{"header":{"parameterUnit":"m.s-1","parameterCategory":1,"la1":30.2991,"la2":30.254,"lo1":-89.0895,"lo2":-89.0444,"dy":0.0017,"dx":0.0017,"nx":28,"ny":28,"refTime":"2025-05-29T21:00:00:Z","depth":0,"parameterNumber":3,"parameterNumberName":"V-component_of_WINDS"},"data":[0,0,0,0,0,0,0,0,0,0,0,0,0,0,0,0,0,0,0,0,0,0,0,0,0,0,0,0,0,0,0,0,0,0,0,0,0,0,0,0,0,0,0,0,0,0,0,0,0,0,0,0,0,0,0,0,0,0,1.5264,1.5264,0,1.521,1.5209,1.5209,1.517,1.517,1.5169,1.5169,1.5113,1.5112,1.511,0,0,0,0,0,0,0,0,0,0,0,0,0,1.5335,1.5334,1.5264,1.5264,1.5263,1.521,1.5209,1.5208,1.517,1.517,1.5169,1.5169,1.5113,1.5112,1.511,0,0,0,0,0,0,0,0,0,0,0,0,0,1.5295,1.5334,1.5265,1.5238,1.5235,1.521,1.5209,1.5208,1.517,1.517,1.5169,1.5169,1.5114,1.5112,1.511,1.5108,0,0,1.5105,1.5104,0,0,0,0,0,0,0,0,1.5297,1.5293,1.5242,1.5239,1.5236,1.5196,1.5214,1.5175,1.517,1.5195,1.5169,1.5169,1.5141,1.5137,1.5128,1.5105,1.5103,1.5104,1.5103,1.5102,1.5102,0,0,0,0,0,0,0,1.53,1.5295,1.5243,1.5242,1.5238,1.5228,1.5222,1.5206,1.5171,1.5192,1.519,1.5184,1.5139,1.5129,1.5126,1.5102,1.5104,1.5103,1.5102,1.5101,1.5076,1.5077,0,0,0,0,0,0,1.5307,1.5297,1.5245,1.5241,1.5266,1.5227,1.522,1.521,1.5171,1.5165,1.5184,1.5182,1.5133,1.5128,1.5124,1.5119,1.5103,1.5101,1.51,1.5076,1.5077,1.5077,0,0,0,0,0,0,1.5309,1.5303,1.5247,1.5268,1.5261,1.5227,1.5215,1.5209,1.5199,1.5165,1.5158,1.5181,1.5132,1.5126,1.5112,1.5117,1.51,1.5098,1.5075,1.5076,1.5077,1.511,0,0,0,0,0,0,1.5311,1.5304,1.5303,1.5269,1.526,1.5236,1.5215,1.5208,1.5196,1.5193,1.516,1.5154,1.5131,1.5115,1.5111,1.5114,1.5097,1.5075,1.5076,1.5077,1.5108,1.5112,1.5115,0,0,0,0,0,1.5314,1.5314,1.5303,1.5297,1.5257,1.5237,1.5231,1.5206,1.5196,1.5195,1.5173,1.5155,1.5117,1.5114,1.5109,1.5112,1.5074,1.5076,1.5076,1.5107,1.5111,1.5115,0,0,0,0,0,0,1.5349,1.5309,1.5296,1.5285,1.5265,1.523,1.5227,1.5211,1.5192,1.519,1.5159,1.5152,1.5141,1.5125,1.5122,1.5108,1.5094,1.5094,1.5119,1.5123,1.5126,1.513,1.5095,0,0,0,0,0,1.5355,1.5342,1.5308,1.5301,1.5292,1.5262,1.5252,1.5234,1.5211,1.5202,1.5179,1.5158,1.5141,1.5131,1.5114,1.5106,1.5099,1.5105,1.5109,1.5111,1.5112,1.5107,1.511,1.508,1.508,1.508,0,0,1.5368,1.5345,1.5338,1.5308,1.529,1.5277,1.5254,1.5241,1.5231,1.52,1.5186,1.5168,1.5143,1.5132,1.5126,1.5118,1.5118,1.5113,1.5115,1.5114,1.5108,1.5111,1.5114,1.5081,1.5081,1.5081,0,0,1.5385,1.5366,1.5359,1.5342,1.5315,1.5295,1.5294,1.5262,1.5249,1.5234,1.5211,1.5199,1.5171,1.5153,1.5141,1.5153,1.5136,1.5149,1.5165,1.5161,1.5163,1.5165,1.517,1.5172,1.5149,1.5149,1.5149,0,1.5405,1.5384,1.5357,1.5346,1.5334,1.5305,1.5298,1.5282,1.5251,1.5244,1.5235,1.52,1.5181,1.5166,1.5169,1.516,1.5157,1.5152,1.5165,1.5167,1.5168,1.5172,1.5174,1.5151,1.5151,1.515,1.515,0,1.541,1.5396,1.5393,1.5365,1.5352,1.5343,1.5315,1.5305,1.5289,1.527,1.5256,1.5232,1.521,1.5205,1.5188,1.5188,1.5184,1.5171,1.5156,1.5173,1.5176,1.5178,1.5153,1.5153,1.5152,1.5152,0,0,1.5446,1.5404,1.5403,1.539,1.5359,1.5348,1.5338,1.5317,1.5309,1.5289,1.528,1.5258,1.5245,1.5231,1.5213,1.521,1.5221,1.5196,1.5195,1.5202,1.522,1.5231,1.5233,1.521,1.521,1.521,1.5223,0,1.5458,1.5439,1.5415,1.5403,1.5391,1.5364,1.5355,1.5336,1.5318,1.5305,1.5285,1.527,1.5255,1.5246,1.5242,1.5221,1.5225,1.522,1.5201,1.5201,1.5209,1.5234,1.5245,1.5258,1.5224,1.5224,1.5224,0,1.547,1.5452,1.5439,1.541,1.5404,1.5397,1.5376,1.5363,1.5341,1.5328,1.5313,1.5294,1.5282,1.5269,1.5253,1.525,1.5242,1.523,1.523,1.5227,1.5213,1.5233,1.5261,1.5263,1.5226,1.5226,1.5225,0,1.5498,1.5471,1.546,1.545,1.5415,1.5411,1.5396,1.5373,1.5362,1.5344,1.5337,1.5318,1.5307,1.5293,1.5269,1.5261,1.5255,1.524,1.5245,1.5246,1.5245,1.5245,1.5272,1.5239,1.5239,1.5239,1.5239,0,1.5514,1.5508,1.5472,1.5466,1.5458,1.5431,1.5424,1.5407,1.5387,1.5376,1.5352,1.5343,1.5312,1.53,1.5281,1.5271,1.5266,1.5256,1.5251,1.5258,1.5259,1.5252,1.525,1.5239,1.5239,1.5239,1.5239,0,1.5544,1.552,1.5507,1.5476,1.5468,1.5464,1.5437,1.543,1.5412,1.5399,1.5395,1.5366,1.535,1.5325,1.5301,1.5288,1.5282,1.5273,1.5289,1.5286,1.5293,1.5293,1.5316,1.5318,1.5284,1.5284,1.5284,0,1.5556,1.5551,1.552,1.5511,1.5498,1.5485,1.5474,1.5447,1.5437,1.5411,1.5407,1.539,1.5374,1.535,1.5327,1.5309,1.53,1.531,1.5297,1.5305,1.5301,1.5301,1.5301,1.5313,1.5313,1.5313,1.5314,0,1.558,1.5569,1.5554,1.5535,1.5523,1.5507,1.549,1.5484,1.5454,1.5443,1.5427,1.5415,1.5392,1.5375,1.5354,1.5339,1.5322,1.5318,1.5318,1.5325,1.5335,1.533,1.5297,1.5317,1.5317,1.5317,1.5317,1.5317,1.5602,1.5596,1.5573,1.5558,1.5542,1.5527,1.5519,1.55,1.5486,1.5465,1.545,1.5435,1.5413,1.5384,1.537,1.5358,1.535,1.535,1.535,1.5351,1.5354,1.5337,1.5354,1.5354,1.5354,1.5354,1.5354,0,1.5624,1.5609,1.5595,1.5572,1.556,1.5545,1.5526,1.5517,1.5504,1.5485,1.5471,1.5452,1.5436,1.5412,1.5394,1.5389,1.5381,1.5385,1.5385,1.5382,1.5362,1.5363,1.5392,1.5392,1.5392,1.5392,1.5392,1.5392,1.5635,1.5624,1.5611,1.5593,1.5577,1.5562,1.5552,1.5538,1.5524,1.5504,1.5491,1.5476,1.5455,1.5436,1.542,1.5414,1.5408,1.5415,1.5407,1.5387,1.5384,1.538,1.5382,1.5414,1.5414,1.5428,1.5428,1.5429]}]]